Regional Weather Roundup
Issued by NWS Upton, NY

Current Version | Previous Version | Text Only | Print | Product List | Glossary On
Versions: 1 2 3 4 5 6 7 8 9 10 11 12 13 14 15 16 17 18 19 20 21 22 23 24 25 26 27
000
ASUS41 KOKX 300605
RWROKX

REGIONAL WEATHER ROUNDUP
NATIONAL WEATHER SERVICE NEW YORK NY
200 AM EDT TUE AUG 30 2016

NOTE: "FAIR" INDICATES FEW OR NO CLOUDS BELOW 12,000 FEET WITH NO
SIGNIFICANT WEATHER AND/OR OBSTRUCTIONS TO VISIBILITY.

NYZ071-072-176-178-NJZ106-104-300700-
NEW YORK CITY METRO AREA

CITY           SKY/WX    TMP DP  RH WIND       PRES   REMARKS
Central Park   CLEAR     75  55  49 NE8       30.17S
LaGuardia APRT CLEAR     76  60  57 NE10      30.13S
Kennedy INTL   PTCLDY    74  60  61 NE8       30.14F
Newark/Liberty PTCLDY    73  57  57 NE9       30.14S
Bronx Bot Gard   N/A     72  55  56 SW1       30.17R
Wall St Helipt CLEAR     79  57  47 NE8       30.14S
Teterboro      CLEAR     72  56  57 N5        30.13S
$$

NYZ177-179-078>081-300700-
LONG ISLAND NEW YORK

CITY           SKY/WX    TMP DP  RH WIND       PRES   REMARKS
Farmingdale    CLEAR     71  60  68 NE7       30.14S
MacArthur/ISP  CLEAR     70  59  68 NE7       30.13S
Shirley        PTCLDY    67  59  75 N5        30.14F
Riverhead      NOT AVBL
Westhampton    CLEAR     68  57  68 NE5       30.16S
Southampton      N/A     68  61  77 NE3       30.10F
Bridgehampton    N/A     66  61  82 CALM      30.14S
East Hampton   FAIR      68  57  67 NE3       30.14S
Montauk          N/A     71  60  68 NE5       30.16S
$$

NYZ052-065-067-300700-
HUDSON VALLEY

CITY           SKY/WX    TMP DP  RH WIND       PRES   REMARKS
White Plains   FAIR      69  56  62 NE6       30.16R
Newburgh       NOT AVBL
Montgomery     FAIR      59  58  96 CALM      30.17S
Poughkeepsie   FAIR      59  57  93 CALM      30.16S
Albany         FAIR      62  56  80 NW3       30.18S
$$

NJZ001-105-106-008-010-013-015-019>022-104-300700-
NEW JERSEY

CITY           SKY/WX    TMP DP  RH WIND       PRES   REMARKS
Newark/Liberty PTCLDY    73  57  57 NE9       30.14S
Teterboro      CLEAR     72  56  57 N5        30.13S
Caldwell       CLEAR     68  61  78 CALM      30.16S
Morristown     CLEAR     59  57  94 CALM      30.15F
Somerville     CLEAR     63  60  90 CALM      30.13F
Linden         FAIR      74  55  51 NE7       30.15F
Sussex         FAIR      57  57 100 CALM      30.18R FOG
Abdover          N/A     60  58  92 CALM      30.17F
Trenton        CLEAR     69  58  67 N7        30.13F
Millville      CLEAR     74  62  66 NE6       30.11F
Atlantic City  CLEAR     70  60  70 N5        30.10F
Wrightstown    CLEAR     66  60  80 N5        30.10F
Toms River     CLEAR     64  59  83 N5        30.12F
Belmar         CLEAR     72  61  68 N5        30.14F
$$

PAZ047>061-062-071-300700-
EASTERN PENNSYLVANIA

CITY           SKY/WX    TMP DP  RH WIND       PRES   REMARKS
Philadelphia   CLEAR     76  58  53 N8        30.12F
Allentown      CLEAR     64  58  80 CALM      30.16F
Scranton       FAIR      61  57  87 E6        30.18F
$$

CTZ002-004>006-009-010-012-RIZ004-006-007-MAZ004-011-015-300700-
SOUTHERN NEW ENGLAND
 IN CT

CITY           SKY/WX    TMP DP  RH WIND       PRES   REMARKS
Bradley INTL   FAIR      62  54  74 NW6       30.18R
Hartford       FAIR      71  54  54 N6        30.17R
Danbury        FAIR      59  56  89 CALM      30.18S
Wtrbury/Oxford   N/A     66  52  59 NE9       30.18F
Bridgeport     FAIR      72  56  57 N8        30.15S
Meriden        FAIR      62  57  83 CALM      30.17R
New Haven      FAIR      66  56  70 NE5       30.16S
Chester        FAIR      66  55  68 N5        30.17S
Groton         FAIR      64  58  80 N3        30.15R
Wilimantic     FAIR      60  58  92 CALM      30.17S

 IN RI

CITY           SKY/WX    TMP DP  RH WIND       PRES   REMARKS
Providence     FAIR      67  53  61 N7        30.16R
Block Island   FAIR      70  60  70 NE7       30.16R
Westerly       FAIR      63  55  75 CALM      30.16S
 IN MA

CITY           SKY/WX    TMP DP  RH WIND       PRES   REMARKS
Boston         FAIR      68  55  63 NW7       30.15S
Worcester      FAIR      63  51  65 N8        30.19S
Westfield      FAIR      60  55  83 CALM      30.18R
Provincetown   FAIR      67  61  81 N8        30.14S
Nantucket      FAIR      64  59  83 N7        30.13R
$$

ANZ330-335-338-340-345-350-353-355-300700-
COASTAL MARINE OBSERVATIONS


STATION/POSITION TIME  SKY/WX   TEMP    WIND        PRES    VSBY  WAVE
                                AIR SEA DIR/SP/G                  HT/PER
                 (UTC)          (F)     (DEG/KT/KT) (MB)    (MI)  (FT/S)
NY HARB ENTRANCE 0450            77 77   30/ 12/ 14 1020.0          3/13
20S FIRE ISLAND  0450            76 75   40/ 14/ 16 1019.4          4/12
GREAT SOUTH BAY  0500            76 80   30/ 10/ 12   N/A
23 SSW MONTAUK P 0450            76 76  100/ 16/ 17 1020.4          4/12
15 E BARNEGAT LI 0500               77                N/A           3/13
HUDSON CANYON    0450            79 79              1019.0          4/12
KINGS POINT      0500            74 76              1020.6
EXECUTION ROCKS  0515            75      40/  8/ 10   N/A
CENTRAL LI SOUND 0500            74 76   50/ 10/ 14   N/A           1
EASTERN LI SOUND 0500            71 70   30/  6/  8   N/A
ROBBINS REEF     0500            77     360/  8/  9 1019.9
$$


>>>>>>>>>>>>>>>>>>>>>>>>>>>> KEY <<<<<<<<<<<<<<<<<<<<<<<<<<<
>                                                          <
>     SKY/WX - Sky Condition/Present Weather               <
>     TMP    - Temperature in Fahrenheit                   <
>     DP     - Dew Point in Fahrenheit                     <
>     RH     - Relative Humidity in Percent                <
>     WIND   - Direction (from) and Speed in MPH           <
>     PRES   - Mean Sea Level Pressure (inches of Hg)      <
>     WCI    - Wind Chill Index                            <
>     VSB    - VISIBILITY IN MILES                         <
>     HX     - HEAT INDEX                                  <
>     TC     - TEMPERATURE IN CELSIUS                      <
>     VRB    - VARIABLE WIND DIRECTION                     <
>                                                          <
>>>>>>>>>>>>>>>>>>>>>>>>>>>> KEY <<<<<<<<<<<<<<<<<<<<<<<<<<<




USA.gov is the U.S. government's official web portal to all federal, state and local government web resources and services.